����,���ϕ���(m/s),���ϕ���,�ő�u�ԕ���(m/s),�ő啗��������,�C��(��),���x(%),10���Ԉړ��ώZ�J��(mm),1���Ԉړ��ώZ�J��(mm),���J��(mm),�݌v�J��(mm)
2024-01-15T00:00:00+09:00,0.5,���k��,1.6,���쐼,1.2,81.4,0,0,0,0
2024-01-15T00:01:00+09:00,0.5,���쐼,1.6,���쐼,1.3,81.3,0,0,0,0
2024-01-15T00:02:00+09:00,0.6,���쐼,1.6,���쐼,1.4,81,0,0,0,0
2024-01-15T00:03:00+09:00,0.6,���쐼,1.6,���쐼,1.5,81,0,0,0,0
2024-01-15T00:04:00+09:00,0.6,�쐼,1.4,�쐼,1.6,80.3,0,0,0,0
2024-01-15T00:05:00+09:00,0.6,�쐼,1.4,�쐼,1.6,80.1,0,0,0,0
2024-01-15T00:06:00+09:00,0.7,�쐼,1.4,�쐼,1.7,79.9,0,0,0,0
2024-01-15T00:07:00+09:00,0.7,���쐼,1.4,�쐼,1.8,79.7,0,0,0,0
2024-01-15T00:08:00+09:00,0.7,���쐼,1.4,�쐼,1.8,79.2,0,0,0,0
2024-01-15T00:09:00+09:00,0.8,���쐼,1.4,�쐼,1.8,78.8,0,0,0,0
2024-01-15T00:10:00+09:00,0.7,���쐼,1.4,�쐼,1.7,79.1,0,0,0,0
2024-01-15T00:11:00+09:00,0.6,���쐼,1.3,�쐼,1.3,79.9,0,0,0,0
2024-01-15T00:12:00+09:00,0.6,���쐼,1.2,�쐼,1.3,80.7,0,0,0,0
2024-01-15T00:13:00+09:00,0.5,��,1.2,�쐼,1.4,81.4,0,0,0,0
2024-01-15T00:14:00+09:00,0.5,��,1.2,�쐼,1.5,81.2,0,0,0,0
2024-01-15T00:15:00+09:00,0.5,��,1.7,��,1.5,81,0,0,0,0
2024-01-15T00:16:00+09:00,0.6,��,1.9,��,1.6,80.9,0,0,0,0
2024-01-15T00:17:00+09:00,0.5,��,1.9,��,1.6,80.8,0,0,0,0
2024-01-15T00:18:00+09:00,0.5,��,1.9,��,1.6,80.9,0,0,0,0
2024-01-15T00:19:00+09:00,0.4,��,1.9,��,1.7,81.2,0,0,0,0
2024-01-15T00:20:00+09:00,0.4,��,1.9,��,1.5,80.4,0,0,0,0
2024-01-15T00:21:00+09:00,0.5,��,1.9,��,1.4,80.5,0,0,0,0
2024-01-15T00:22:00+09:00,0.5,��,1.9,��,1.4,81.3,0,0,0,0
2024-01-15T00:23:00+09:00,0.5,���k��,1.9,��,1.5,81.5,0,0,0,0
2024-01-15T00:24:00+09:00,0.5,���k��,1.9,��,1.5,81.8,0,0,0,0
2024-01-15T00:25:00+09:00,0.5,��,2.6,���쐼,1.6,81.3,0,0,0,0
2024-01-15T00:26:00+09:00,0.5,��,2.6,���쐼,1.8,81.1,0,0,0,0
2024-01-15T00:27:00+09:00,0.6,��,2.6,���쐼,1.9,81.2,0,0,0,0
2024-01-15T00:28:00+09:00,0.8,���k��,3.2,���k��,1.9,80.1,0,0,0,0
2024-01-15T00:29:00+09:00,1.1,���k��,3.4,���쐼,1.9,79.4,0,0,0,0
2024-01-15T00:30:00+09:00,1.2,��,3.4,���쐼,1.8,79.6,0,0,0,0
2024-01-15T00:31:00+09:00,1.3,���쐼,3.4,���쐼,1.7,80.9,0,0,0,0
2024-01-15T00:32:00+09:00,1.3,���쐼,3.4,���쐼,1.7,81.3,0,0,0,0
2024-01-15T00:33:00+09:00,1.4,�쐼,3.4,���쐼,1.8,81.7,0,0,0,0
2024-01-15T00:34:00+09:00,1.3,�쐼,3.4,���쐼,1.8,81.5,0,0,0,0
2024-01-15T00:35:00+09:00,1.2,��쐼,3.4,���쐼,1.8,81.9,0,0,0,0
2024-01-15T00:36:00+09:00,1.2,��쐼,3.4,���쐼,1.8,82.1,0,0,0,0
2024-01-15T00:37:00+09:00,1,��쐼,3.4,���쐼,1.8,81.2,0,0,0,0
2024-01-15T00:38:00+09:00,0.8,��쐼,3.4,���쐼,1.9,80.8,0,0,0,0
2024-01-15T00:39:00+09:00,0.6,��쐼,2.8,���쐼,1.9,81,0,0,0,0
2024-01-15T00:40:00+09:00,0.5,��쐼,1.6,�쓌,1.8,80.8,0,0,0,0
2024-01-15T00:41:00+09:00,0.5,�쐼,1.6,�쓌,1.8,80.5,0,0,0,0
2024-01-15T00:42:00+09:00,0.5,���쐼,1.6,���k��,1.7,80,0,0,0,0
2024-01-15T00:43:00+09:00,0.6,���쐼,1.6,���k��,1.6,80.2,0,0,0,0
2024-01-15T00:44:00+09:00,0.5,��,1.6,���k��,1.5,81.3,0,0,0,0
2024-01-15T00:45:00+09:00,0.6,���k��,1.6,���k��,1.5,82.4,0,0,0,0
2024-01-15T00:46:00+09:00,0.6,���k��,1.6,���k��,1.6,82.4,0,0,0,0
2024-01-15T00:47:00+09:00,0.6,���k��,1.6,���k��,1.6,81.8,0,0,0,0
2024-01-15T00:48:00+09:00,0.6,�k��,1.6,���k��,1.6,82,0,0,0,0
2024-01-15T00:49:00+09:00,0.6,�k��,1.6,���k��,1.7,82.5,0,0,0,0
2024-01-15T00:50:00+09:00,0.6,�k��,1.6,���k��,1.7,82.7,0,0,0,0
2024-01-15T00:51:00+09:00,0.6,���k��,1.6,���k��,1.6,83,0,0,0,0
2024-01-15T00:52:00+09:00,0.5,���k��,1.3,�k��,1.6,83.2,0,0,0,0
2024-01-15T00:53:00+09:00,0.4,���k��,1.2,��,1.6,83.4,0,0,0,0
2024-01-15T00:54:00+09:00,0.5,��,1.2,��,1.6,83.5,0,0,0,0
2024-01-15T00:55:00+09:00,0.4,��,1.2,��,1.6,83.8,0,0,0,0
2024-01-15T00:56:00+09:00,0.4,���쓌,1.1,��쓌,1.6,84,0,0,0,0
2024-01-15T00:57:00+09:00,0.4,���쓌,1.3,�k��,1.7,84.2,0,0,0,0
2024-01-15T00:58:00+09:00,0.4,���쓌,1.3,�k��,1.6,84.5,0,0,0,0
2024-01-15T00:59:00+09:00,0.4,���쓌,1.3,�k��,1.6,84.3,0,0,0,0
2024-01-15T01:00:00+09:00,0.5,��,1.6,�k�k��,1.5,83.7,0,0,0,0
2024-01-15T01:01:00+09:00,0.5,���k��,1.6,�k�k��,1.5,83.6,0,0,0,0
2024-01-15T01:02:00+09:00,0.6,���k��,1.6,�k�k��,1.5,84.2,0,0,0,0
2024-01-15T01:03:00+09:00,0.5,���k��,1.6,�k�k��,1.9,85.1,0,0,0,0
2024-01-15T01:04:00+09:00,0.5,�k��,1.6,�k�k��,1.8,84.4,0,0,0,0
2024-01-15T01:05:00+09:00,0.6,�k��,1.6,�k�k��,1.9,84.1,0,0,0,0
2024-01-15T01:06:00+09:00,0.7,�k�k��,1.9,�k�k��,2,83.6,0,0,0,0
2024-01-15T01:07:00+09:00,0.7,�k,1.9,�k�k��,2.2,82.7,0,0,0,0
2024-01-15T01:08:00+09:00,0.7,�k�k��,2,��쓌,2.3,81.3,0,0,0,0
2024-01-15T01:09:00+09:00,0.9,�k��,2.4,��쓌,2.1,81.7,0,0,0,0
2024-01-15T01:10:00+09:00,0.7,���k��,2.4,��쓌,2.1,82.2,0,0,0,0
2024-01-15T01:11:00+09:00,0.7,���k��,2.4,��쓌,2.2,81.4,0,0,0,0
2024-01-15T01:12:00+09:00,0.8,���k��,2.5,���k��,2.3,80.9,0,0,0,0
2024-01-15T01:13:00+09:00,1,���k��,2.6,�k��,2.5,80.7,0,0,0,0
2024-01-15T01:14:00+09:00,1.1,��,2.6,�k��,2.3,80.9,0,0,0,0
2024-01-15T01:15:00+09:00,1.1,���쐼,2.6,�k��,2.1,81.8,0,0,0,0
2024-01-15T01:16:00+09:00,1.1,�쐼,2.6,�k��,2.2,82.3,0,0,0,0
2024-01-15T01:17:00+09:00,1.1,��,2.6,�k��,2.2,82.6,0,0,0,0
2024-01-15T01:18:00+09:00,1.2,��,2.6,�k��,2.3,82.4,0,0,0,0
2024-01-15T01:19:00+09:00,1.1,��쐼,2.6,�k��,2.5,82.1,0,0,0,0
2024-01-15T01:20:00+09:00,1.2,��쐼,2.8,��,2.5,81.2,0,0,0,0
2024-01-15T01:21:00+09:00,1.3,��쐼,2.8,��,2.6,80.7,0,0,0,0
2024-01-15T01:22:00+09:00,1.3,��쐼,2.8,��,2.6,80.3,0,0,0,0
2024-01-15T01:23:00+09:00,1.2,��쐼,2.8,��,2.8,80.3,0,0,0,0
2024-01-15T01:24:00+09:00,1.2,�쐼,2.8,��,2.7,79.6,0,0,0,0
2024-01-15T01:25:00+09:00,1.1,���쐼,2.8,��,2.5,79.6,0,0,0,0
2024-01-15T01:26:00+09:00,1,��,2.8,��,2.5,80.1,0,0,0,0
2024-01-15T01:27:00+09:00,1,���k��,2.8,��,2.4,80.1,0,0,0,0
2024-01-15T01:28:00+09:00,0.9,���k��,2.8,��,2.3,80.1,0,0,0,0
2024-01-15T01:29:00+09:00,0.9,�k��,2.8,��,2.4,80.3,0,0,0,0
2024-01-15T01:30:00+09:00,0.9,�k��,2.2,���k��,2.4,79.9,0,0,0,0
2024-01-15T01:31:00+09:00,0.8,�k��,2.2,���k��,2.5,80.1,0,0,0,0
2024-01-15T01:32:00+09:00,0.8,�k��,2.2,���k��,2.6,80,0,0,0,0
2024-01-15T01:33:00+09:00,0.8,�k��,2.2,���k��,2.7,79.1,0,0,0,0
2024-01-15T01:34:00+09:00,0.7,�k��,2.2,���k��,2.9,78.8,0,0,0,0
2024-01-15T01:35:00+09:00,0.7,�k��,2.2,���k��,2.9,78.6,0,0,0,0
2024-01-15T01:36:00+09:00,0.7,�k��,2.2,���k��,2.8,78.1,0,0,0,0
2024-01-15T01:37:00+09:00,0.7,�k��,2.2,���k��,2.7,78.7,0,0,0,0
2024-01-15T01:38:00+09:00,0.8,���k��,2.2,���k��,2.5,79.8,0,0,0,0
2024-01-15T01:39:00+09:00,0.7,��,1.6,�쓌,2.3,80.6,0,0,0,0
2024-01-15T01:40:00+09:00,0.7,���쐼,1.6,�쓌,2.2,81.7,0,0,0,0
2024-01-15T01:41:00+09:00,0.7,��,1.7,���쓌,2.1,82.5,0,0,0,0
2024-01-15T01:42:00+09:00,0.8,�쓌,1.7,���쓌,2.1,83.3,0,0,0,0
2024-01-15T01:43:00+09:00,0.8,�쓌,1.7,���쓌,2.1,84,0,0,0,0
2024-01-15T01:44:00+09:00,0.8,�쓌,1.7,���쓌,2.1,84.4,0,0,0,0
2024-01-15T01:45:00+09:00,0.8,�쓌,1.7,���쓌,2.2,84.7,0,0,0,0
2024-01-15T01:46:00+09:00,1,�쓌,2.1,��,2.2,84.8,0,0,0,0
2024-01-15T01:47:00+09:00,1,�쓌,2.1,��,2.2,84.5,0,0,0,0
2024-01-15T01:48:00+09:00,1,�쓌,2.1,��,2.1,84.6,0,0,0,0
2024-01-15T01:49:00+09:00,1,�쓌,2.1,��,2.2,85.2,0,0,0,0
2024-01-15T01:50:00+09:00,1,�쓌,2.1,��,2,85.2,0,0,0,0
2024-01-15T01:51:00+09:00,1,��쓌,2.1,��,2,85.1,0,0,0,0
2024-01-15T01:52:00+09:00,1,��,2.1,��,1.8,85,0,0,0,0
2024-01-15T01:53:00+09:00,1,��쐼,2.1,��,1.8,85.5,0,0,0,0
2024-01-15T01:54:00+09:00,1.1,��쐼,2.1,��,1.9,86.1,0,0,0,0
2024-01-15T01:55:00+09:00,1.1,��쐼,2.1,��,2,86.1,0,0,0,0
2024-01-15T01:56:00+09:00,1,�쐼,2.1,���쐼,2,85.7,0,0,0,0
2024-01-15T01:57:00+09:00,0.9,��쐼,2.1,���쐼,2,85.6,0,0,0,0
2024-01-15T01:58:00+09:00,0.7,��쐼,1.9,��쐼,1.8,85.3,0,0,0,0
2024-01-15T01:59:00+09:00,0.7,��쐼,1.9,��쐼,2,85.7,0,0,0,0
2024-01-15T02:00:00+09:00,0.7,��쐼,1.9,��쐼,2.1,86.3,0,0,0,0
2024-01-15T02:01:00+09:00,0.7,��쐼,1.9,��쐼,1.7,84.7,0,0,0,0
2024-01-15T02:02:00+09:00,0.6,��쐼,1.9,��쐼,1.7,85.1,0,0,0,0
2024-01-15T02:03:00+09:00,0.5,��쐼,1.9,��쐼,1.7,85.8,0,0,0,0
2024-01-15T02:04:00+09:00,0.4,��쐼,1.9,��쐼,1.7,86.2,0,0,0,0
2024-01-15T02:05:00+09:00,0.3,��쓌,1.1,��,1.7,86.5,0,0,0,0
2024-01-15T02:06:00+09:00,0.3,���k��,1.1,��,1.7,86.4,0,0,0,0
2024-01-15T02:07:00+09:00,0.3,�k��,1.1,��,1.6,86.4,0,0,0,0
2024-01-15T02:08:00+09:00,0.4,�k�k��,1.1,��,1.6,86.4,0,0,0,0
2024-01-15T02:09:00+09:00,0.4,�k�k��,1.1,��,1.6,86.5,0,0,0,0
2024-01-15T02:10:00+09:00,0.4,�k�k��,1.1,�k,1.5,86.6,0,0,0,0
2024-01-15T02:11:00+09:00,0.4,�k�k��,1.1,�k,1.5,86.7,0,0,0,0
2024-01-15T02:12:00+09:00,0.4,�k�k��,1.1,�k,1.5,87.1,0,0,0,0
2024-01-15T02:13:00+09:00,0.4,�k�k��,1.1,�k,1.5,87.2,0,0,0,0
2024-01-15T02:14:00+09:00,0.5,�k��,1.1,�k,1.6,87.2,0,0,0,0
2024-01-15T02:15:00+09:00,0.5,�k�k��,1.1,�k,1.6,87.2,0,0,0,0
2024-01-15T02:16:00+09:00,0.6,�k��,1.9,��쓌,1.7,87.5,0,0,0,0
2024-01-15T02:17:00+09:00,0.7,�k��,2,��,1.7,87.1,0,0,0,0
2024-01-15T02:18:00+09:00,0.8,��,2,��,1.7,87.1,0,0,0,0
2024-01-15T02:19:00+09:00,0.8,���쓌,2,��,1.7,87.3,0,0,0,0
2024-01-15T02:20:00+09:00,0.9,�쓌,2.5,��,1.8,87.6,0,0,0,0
2024-01-15T02:21:00+09:00,1,��쓌,2.5,��,1.8,87.8,0,0,0,0
2024-01-15T02:22:00+09:00,1,��쓌,2.5,��,1.9,87.9,0,0,0,0
2024-01-15T02:23:00+09:00,1.1,��쓌,2.5,��,2,87.9,0,0,0,0
2024-01-15T02:24:00+09:00,1,��쓌,2.5,��,2,87.5,0,0,0,0
2024-01-15T02:25:00+09:00,1,��쓌,2.5,��,1.8,87.1,0,0,0,0
2024-01-15T02:26:00+09:00,1,��쓌,2.5,��,1.5,86.4,0,0,0,0
2024-01-15T02:27:00+09:00,0.9,��,2.5,��,1.5,86.8,0,0,0,0
2024-01-15T02:28:00+09:00,0.8,��,2.5,��,1.6,87.9,0,0,0,0
2024-01-15T02:29:00+09:00,0.8,�쐼,2.5,��,1.9,88.3,0,0,0,0
2024-01-15T02:30:00+09:00,0.6,���쐼,2.5,��,2.1,88.8,0,0,0,0
2024-01-15T02:31:00+09:00,0.5,���k��,1.4,��쐼,1.8,87.2,0,0,0,0
2024-01-15T02:32:00+09:00,0.5,���k��,1.4,��쐼,1.8,86.7,0,0,0,0
2024-01-15T02:33:00+09:00,0.5,���k��,1.4,��쐼,1.9,86.8,0,0,0,0
2024-01-15T02:34:00+09:00,0.5,���k��,1.3,�k�k��,2.1,87.2,0,0,0,0
2024-01-15T02:35:00+09:00,0.5,��,1.3,�k�k��,2.1,86.7,0,0,0,0
2024-01-15T02:36:00+09:00,0.4,���쐼,1.3,�k�k��,2.1,86.2,0,0,0,0
2024-01-15T02:37:00+09:00,0.3,���쐼,0.9,��쐼,2,86.1,0,0,0,0
2024-01-15T02:38:00+09:00,0.3,�쐼,0.9,��쐼,1.8,85.8,0,0,0,0
2024-01-15T02:39:00+09:00,0.3,�쓌,0.9,��쐼,1.7,86.1,0,0,0,0
2024-01-15T02:40:00+09:00,0.3,���쓌,0.9,��쐼,1.9,86.6,0,0,0,0
2024-01-15T02:41:00+09:00,0.3,�쓌,0.9,��쐼,2.1,87.2,0,0,0,0
2024-01-15T02:42:00+09:00,0.4,�쓌,1,��쓌,2.1,87.3,0,0,0,0
2024-01-15T02:43:00+09:00,0.3,�쓌,1,��쓌,2.3,87,0,0,0,0
2024-01-15T02:44:00+09:00,0.3,�쓌,1,��쓌,2.6,85.9,0,0,0,0
2024-01-15T02:45:00+09:00,0.4,�쓌,1.8,���k��,2.8,84.6,0,0,0,0
2024-01-15T02:46:00+09:00,0.5,��,1.8,���k��,3.1,83.6,0,0,0,0
2024-01-15T02:47:00+09:00,0.6,�쐼,1.8,���k��,3.1,82,0,0,0,0
2024-01-15T02:48:00+09:00,0.6,�쐼,1.8,���k��,2.8,80.9,0,0,0,0
2024-01-15T02:49:00+09:00,0.7,��,1.8,���k��,2.6,80.9,0,0,0,0
2024-01-15T02:50:00+09:00,0.7,�k��,1.8,���k��,2.4,81.9,0,0,0,0
2024-01-15T02:51:00+09:00,0.8,�k�k��,1.8,���k��,2.4,82.8,0,0,0,0
2024-01-15T02:52:00+09:00,0.8,�k�k��,1.8,���k��,2.4,83.2,0,0,0,0
2024-01-15T02:53:00+09:00,0.8,�k�k��,1.8,���k��,2.5,83.5,0,0,0,0
2024-01-15T02:54:00+09:00,0.8,�k�k��,1.8,���k��,2.7,83.6,0,0,0,0
2024-01-15T02:55:00+09:00,0.7,�k�k��,1.8,�k�k��,2.8,82.9,0,0,0,0
2024-01-15T02:56:00+09:00,0.6,�k�k��,1.8,�k�k��,2.7,82.4,0,0,0,0
2024-01-15T02:57:00+09:00,0.6,�k�k��,1.8,�k�k��,2.7,82.7,0,0,0,0
2024-01-15T02:58:00+09:00,0.6,�k��,1.8,�k�k��,3,83.1,0,0,0,0
2024-01-15T02:59:00+09:00,0.5,�k��,1.8,�k�k��,2.9,82.5,0,0,0,0
2024-01-15T03:00:00+09:00,0.5,�k�k��,1.8,�k�k��,2.8,82.3,0,0,0,0
2024-01-15T03:01:00+09:00,0.5,�k��,1.6,�k�k��,2.9,82.7,0,0,0,0
2024-01-15T03:02:00+09:00,0.5,�k��,1.7,�k�k��,2.8,82,0,0,0,0
2024-01-15T03:03:00+09:00,0.7,�k�k��,2.3,�k,2.8,82.2,0,0,0,0
2024-01-15T03:04:00+09:00,0.8,�k�k��,2.3,�k,2.8,82.3,0,0,0,0
2024-01-15T03:05:00+09:00,0.9,�k�k��,2.8,�k�k��,3,82.4,0,0,0,0
2024-01-15T03:06:00+09:00,1,�k,3.1,�k�k��,3.4,81.5,0,0,0,0
2024-01-15T03:07:00+09:00,1.1,�k,3.1,�k�k��,3.6,80,0,0,0,0
2024-01-15T03:08:00+09:00,1,�k,3.1,�k�k��,4,78.4,0,0,0,0
2024-01-15T03:09:00+09:00,1.1,�k,3.1,�k�k��,3.7,77.3,0,0,0,0
2024-01-15T03:10:00+09:00,1.2,�k,3.1,�k�k��,3.2,78.1,0,0,0,0
2024-01-15T03:11:00+09:00,1.2,�k,3.1,�k�k��,3.1,79.5,0,0,0,0
2024-01-15T03:12:00+09:00,1.2,�k�k��,3.1,�k�k��,2.9,80.4,0,0,0,0
2024-01-15T03:13:00+09:00,1.2,�k��,3.1,�k�k��,2.9,81.4,0,0,0,0
2024-01-15T03:14:00+09:00,1.2,���k��,3.1,�k�k��,2.9,82.2,0,0,0,0
2024-01-15T03:15:00+09:00,1.2,���쓌,3.1,�k�k��,2.9,83,0,0,0,0
2024-01-15T03:16:00+09:00,1.1,���쓌,2.3,�쓌,3,83.2,0,0,0,0
2024-01-15T03:17:00+09:00,1.1,���쓌,2.3,�쓌,3.1,83.5,0,0,0,0
2024-01-15T03:18:00+09:00,1.1,���쓌,2.3,�쓌,3.4,83.2,0,0,0,0
2024-01-15T03:19:00+09:00,1.1,���쓌,2.3,�쓌,3.7,81.6,0,0,0,0
2024-01-15T03:20:00+09:00,1.1,�쓌,2.3,�쓌,3.5,80.6,0,0,0,0
2024-01-15T03:21:00+09:00,1.2,���쓌,2.1,��,3.1,80.3,0,0,0,0
2024-01-15T03:22:00+09:00,1.1,���쓌,2.1,��,2.9,81,0,0,0,0
2024-01-15T03:23:00+09:00,1.2,���쓌,2.1,��,2.9,81.2,0,0,0,0
2024-01-15T03:24:00+09:00,1.2,���쓌,2.1,��,3.1,81.2,0,0,0,0
2024-01-15T03:25:00+09:00,1.2,��,2.1,�쓌,3.2,80.9,0,0,0,0
2024-01-15T03:26:00+09:00,1.3,��,2.3,��쓌,3,81.2,0,0,0,0
2024-01-15T03:27:00+09:00,1.4,���쓌,2.3,��쓌,3,82.3,0,0,0,0
2024-01-15T03:28:00+09:00,1.5,���쓌,2.3,��쓌,3,83.1,0,0,0,0
2024-01-15T03:29:00+09:00,1.6,���쓌,2.3,��쓌,3.1,84,0,0,0,0
2024-01-15T03:30:00+09:00,1.6,�쓌,2.4,�쐼,3.1,84.1,0,0,0,0
2024-01-15T03:31:00+09:00,1.7,��쓌,2.6,��쐼,3.2,84.4,0,0,0,0
2024-01-15T03:32:00+09:00,1.8,��쓌,2.7,�쐼,3.4,84.1,0,0,0,0
2024-01-15T03:33:00+09:00,1.9,��,2.9,���쐼,3.5,83.1,0,0,0,0
2024-01-15T03:34:00+09:00,2.1,��쐼,3.5,��쐼,3.5,82.4,0,0,0,0
2024-01-15T03:35:00+09:00,2.2,��쐼,3.9,��,3.5,82.1,0,0,0,0
2024-01-15T03:36:00+09:00,2.2,��쐼,3.9,��,3.6,82.1,0,0,0,0
2024-01-15T03:37:00+09:00,2.3,��쐼,3.9,��,4,82,0,0,0,0
2024-01-15T03:38:00+09:00,2.3,�쐼,3.9,��,4.4,80.8,0,0,0,0
2024-01-15T03:39:00+09:00,2.4,�쐼,3.9,��,4.2,79.6,0,0,0,0
2024-01-15T03:40:00+09:00,2.5,��쐼,3.9,��,4.3,79.3,0,0,0,0
2024-01-15T03:41:00+09:00,2.4,�쐼,3.9,��,4.8,78.6,0,0,0,0
2024-01-15T03:42:00+09:00,2.3,�쐼,3.9,��,5,76.4,0,0,0,0
2024-01-15T03:43:00+09:00,2.1,��쐼,3.9,��,4.7,75.6,0,0,0,0
2024-01-15T03:44:00+09:00,1.9,��쐼,3.9,��,3.6,75.5,0,0,0,0
2024-01-15T03:45:00+09:00,1.7,�쐼,3.3,�쐼,3.1,77.2,0,0,0,0
2024-01-15T03:46:00+09:00,1.6,���쐼,3.3,�쐼,2.9,79.7,0,0,0,0
2024-01-15T03:47:00+09:00,1.5,���쐼,3.3,�쐼,3,81.9,0,0,0,0
2024-01-15T03:48:00+09:00,1.4,��,3.3,�쐼,3.4,83.1,0,0,0,0
2024-01-15T03:49:00+09:00,1.2,���k��,3.3,�쐼,3.4,82.5,0,0,0,0
2024-01-15T03:50:00+09:00,1.1,���k��,2.3,�쐼,3.6,81.9,0,0,0,0
2024-01-15T03:51:00+09:00,1,�k��,2.3,���k��,3.7,81,0,0,0,0
2024-01-15T03:52:00+09:00,1.1,�k��,2.7,���k��,3.8,80.2,0,0,0,0
2024-01-15T03:53:00+09:00,1.2,�k��,2.7,���k��,3.9,78.9,0,0,0,0
2024-01-15T03:54:00+09:00,1.2,�k��,2.7,���k��,4,78.3,0,0,0,0
2024-01-15T03:55:00+09:00,1.2,���k��,2.7,���k��,4.2,77.9,0,0,0,0
2024-01-15T03:56:00+09:00,1.2,���k��,2.7,���k��,4.1,77.1,0,0,0,0
2024-01-15T03:57:00+09:00,1.2,���k��,2.7,���k��,4,77.2,0,0,0,0
2024-01-15T03:58:00+09:00,1.3,���k��,2.7,���k��,4.2,76.7,0,0,0,0
2024-01-15T03:59:00+09:00,1.3,���k��,2.7,���k��,4.2,76.2,0,0,0,0
2024-01-15T04:00:00+09:00,1.3,���k��,2.7,���k��,4,76.3,0,0,0,0
2024-01-15T04:01:00+09:00,1.3,�k��,2.7,���k��,3.5,77.4,0,0,0,0
2024-01-15T04:02:00+09:00,1.2,�k��,2.4,���k��,3.4,78.5,0,0,0,0
2024-01-15T04:03:00+09:00,1.2,�k�k��,2.3,���k��,3.3,79.4,0,0,0,0
2024-01-15T04:04:00+09:00,1.2,�k�k��,2.3,���k��,3.2,80.2,0,0,0,0
2024-01-15T04:05:00+09:00,1.2,�k,2.3,���k��,3.2,81,0,0,0,0
2024-01-15T04:06:00+09:00,1.2,�k,2.3,���k��,3.2,81.4,0,0,0,0
2024-01-15T04:07:00+09:00,1.2,�k�k��,2.3,���k��,3.4,81.5,0,0,0,0
2024-01-15T04:08:00+09:00,1.1,�k�k��,2.1,�k��,3.5,81.4,0,0,0,0
2024-01-15T04:09:00+09:00,1.2,�k��,2,���쓌,3.4,80.8,0,0,0,0
2024-01-15T04:10:00+09:00,1.2,�k��,2.2,���쓌,3.1,81,0,0,0,0
2024-01-15T04:11:00+09:00,1.3,���k��,2.2,���쓌,3,82.1,0,0,0,0
2024-01-15T04:12:00+09:00,1.4,���k��,2.2,���쓌,3,83,0,0,0,0
2024-01-15T04:13:00+09:00,1.4,��,2.2,���쓌,3.1,83.2,0,0,0,0
2024-01-15T04:14:00+09:00,1.3,��,2.2,���쓌,3.3,83.1,0,0,0,0
2024-01-15T04:15:00+09:00,1.2,��,2.2,���쓌,3.8,82.3,0,0,0,0
2024-01-15T04:16:00+09:00,1.1,��,2.2,���쓌,4,80.5,0,0,0,0
2024-01-15T04:17:00+09:00,1.1,��,2.2,���쓌,4.1,79.2,0,0,0,0
2024-01-15T04:18:00+09:00,1.1,��,2.5,�k�k��,4.1,78.3,0,0,0,0
2024-01-15T04:19:00+09:00,1.1,��,2.5,�k�k��,4.2,77.7,0,0,0,0
2024-01-15T04:20:00+09:00,1.1,�k�k��,2.5,�k�k��,4.1,77.6,0,0,0,0
2024-01-15T04:21:00+09:00,1.2,�k��,3.7,��,4.1,77.3,0,0,0,0
2024-01-15T04:22:00+09:00,1.3,���k��,3.7,��,4.2,77.6,0,0,0,0
2024-01-15T04:23:00+09:00,1.4,���k��,3.7,��,4.2,77.7,0,0,0,0
2024-01-15T04:24:00+09:00,1.5,���k��,3.7,��,4.3,77.9,0,0,0,0
2024-01-15T04:25:00+09:00,1.7,���k��,3.7,��,4.3,77.7,0,0,0,0
2024-01-15T04:26:00+09:00,2,��,3.7,��,4.2,77.6,0,0,0,0
2024-01-15T04:27:00+09:00,2.1,��,3.7,��,4,77.9,0,0,0,0
2024-01-15T04:28:00+09:00,2.2,��,3.7,��,3.8,78.5,0,0,0,0
2024-01-15T04:29:00+09:00,2.2,���k��,3.7,��,3.7,79,0,0,0,0
2024-01-15T04:30:00+09:00,2.1,���k��,3.7,��,3.6,79.8,0,0,0,0
2024-01-15T04:31:00+09:00,2,���k��,3.7,��,3.5,80.3,0,0,0,0
2024-01-15T04:32:00+09:00,1.7,�k��,3.5,��,3.4,80.9,0,0,0,0
2024-01-15T04:33:00+09:00,1.6,�k�k��,3.5,��,3.5,81.4,0,0,0,0
2024-01-15T04:34:00+09:00,1.4,�k,3.5,��,3.6,81.5,0,0,0,0
2024-01-15T04:35:00+09:00,1.2,�k�k��,3.3,���k��,3.7,81,0,0,0,0
2024-01-15T04:36:00+09:00,0.9,�k��,3.3,���k��,3.7,80.4,0,0,0,0
2024-01-15T04:37:00+09:00,0.7,���k��,2.4,�k��,3.6,80.8,0,0,0,0
2024-01-15T04:38:00+09:00,0.5,��,2,�k��,3.6,80.8,0,0,0,0
2024-01-15T04:39:00+09:00,0.4,���쓌,1.3,���k��,3.6,80.9,0,0,0,0
2024-01-15T04:40:00+09:00,0.4,���쓌,1.3,���k��,3.6,80.9,0,0,0,0
2024-01-15T04:41:00+09:00,0.3,�쓌,1.1,���k��,3.7,81,0,0,0,0
2024-01-15T04:42:00+09:00,0.2,�É�,0.8,���쓌,3.7,81.1,0,0,0,0
2024-01-15T04:43:00+09:00,0.2,�É�,0.7,���k��,3.8,80.6,0,0,0,0
2024-01-15T04:44:00+09:00,0.2,�É�,0.7,���k��,3.7,80.6,0,0,0,0
2024-01-15T04:45:00+09:00,0.2,�É�,0.8,���쐼,3.7,81.1,0,0,0,0
2024-01-15T04:46:00+09:00,0.3,��,1.4,���쐼,3.5,81.2,0,0,0,0
2024-01-15T04:47:00+09:00,0.4,��쐼,1.4,���쐼,3.4,81.7,0,0,0,0
2024-01-15T04:48:00+09:00,0.4,��쐼,1.4,���쐼,3.4,82.1,0,0,0,0
2024-01-15T04:49:00+09:00,0.5,�쐼,1.4,���쐼,3.3,82.3,0,0,0,0
2024-01-15T04:50:00+09:00,0.5,�쐼,1.4,���쐼,3.3,82.7,0,0,0,0
2024-01-15T04:51:00+09:00,0.6,���쐼,1.4,���쐼,3.3,83.1,0,0,0,0
2024-01-15T04:52:00+09:00,0.6,���쐼,1.4,���쐼,3.3,83.5,0,0,0,0
2024-01-15T04:53:00+09:00,0.7,���쐼,1.4,���쐼,3.3,83.9,0,0,0,0
2024-01-15T04:54:00+09:00,0.7,���쐼,1.4,���쐼,3.4,84.2,0,0,0,0
2024-01-15T04:55:00+09:00,0.8,���쐼,1.4,���쐼,3.5,84.1,0,0,0,0
2024-01-15T04:56:00+09:00,0.8,���쐼,1.2,��쐼,3.5,83.7,0,0,0,0
2024-01-15T04:57:00+09:00,0.8,���쐼,1.2,��쐼,3.5,83.8,0,0,0,0
2024-01-15T04:58:00+09:00,0.8,���쐼,1.6,���쐼,3.5,83.9,0,0,0,0
2024-01-15T04:59:00+09:00,0.9,�쐼,1.7,��,3.6,83.7,0,0,0,0
2024-01-15T05:00:00+09:00,0.9,�쐼,1.7,��,3.6,83.6,0,0,0,0
2024-01-15T05:01:00+09:00,0.9,�쐼,1.7,��,3.6,83.4,0,0,0,0
2024-01-15T05:02:00+09:00,0.9,�쐼,1.7,��,3.6,83.3,0,0,0,0
2024-01-15T05:03:00+09:00,0.8,�쐼,1.7,��,3.7,83.3,0,0,0,0
2024-01-15T05:04:00+09:00,0.8,���쐼,1.7,��,3.6,83.1,0,0,0,0
2024-01-15T05:05:00+09:00,0.8,���쐼,1.7,��,3.5,83.5,0,0,0,0
2024-01-15T05:06:00+09:00,0.9,��,2.1,�k�k��,3.4,83.8,0,0,0,0
2024-01-15T05:07:00+09:00,1,���k��,2.4,�k�k��,3.3,84.3,0,0,0,0
2024-01-15T05:08:00+09:00,1,�k��,2.4,�k�k��,3.3,84.4,0,0,0,0
2024-01-15T05:09:00+09:00,1,�k�k��,2.4,�k�k��,3.3,84.6,0,0,0,0
2024-01-15T05:10:00+09:00,0.9,�k,2.4,�k�k��,3.3,84.9,0,0,0,0
2024-01-15T05:11:00+09:00,0.9,�k�k��,2.4,�k�k��,3.5,84.9,0,0,0,0
2024-01-15T05:12:00+09:00,0.9,�k�k��,2.4,�k�k��,3.5,84.8,0,0,0,0
2024-01-15T05:13:00+09:00,0.9,�k��,2.4,�k�k��,3.5,84.8,0,0,0,0
2024-01-15T05:14:00+09:00,0.9,���k��,2.4,�k�k��,3.5,85.1,0,0,0,0
2024-01-15T05:15:00+09:00,0.9,���k��,2.4,�k�k��,3.5,85.3,0,0,0,0
2024-01-15T05:16:00+09:00,0.8,��,2.4,�k�k��,3.5,85.1,0,0,0,0
2024-01-15T05:17:00+09:00,0.7,��,1.8,�k��,3.5,85.1,0,0,0,0
2024-01-15T05:18:00+09:00,0.7,���쓌,1.5,���쓌,3.5,84.9,0,0,0,0
2024-01-15T05:19:00+09:00,0.6,���쓌,1.5,���쓌,3.5,85,0,0,0,0
2024-01-15T05:20:00+09:00,0.7,���쓌,1.5,���쓌,3.5,85.6,0,0,0,0
2024-01-15T05:21:00+09:00,0.7,�쓌,1.5,���쓌,3.5,85.3,0,0,0,0
2024-01-15T05:22:00+09:00,0.7,���쓌,1.5,���쓌,3.5,85.5,0,0,0,0
2024-01-15T05:23:00+09:00,0.8,���쓌,1.5,���쓌,3.5,86.2,0,0,0,0
2024-01-15T05:24:00+09:00,0.8,�쓌,1.5,���쓌,3.5,86.3,0,0,0,0
2024-01-15T05:25:00+09:00,0.8,�쓌,1.5,���쓌,3.6,85.6,0,0,0,0
2024-01-15T05:26:00+09:00,0.8,�쓌,1.7,��쓌,3.8,85,0,0,0,0
2024-01-15T05:27:00+09:00,0.9,�쓌,2.1,��쓌,3.8,84.6,0,0,0,0
2024-01-15T05:28:00+09:00,0.8,�쓌,2.1,��쓌,3.7,84.4,0,0,0,0
2024-01-15T05:29:00+09:00,0.8,�쓌,2.1,��쓌,3.7,85.1,0,0,0,0
2024-01-15T05:30:00+09:00,0.8,�쓌,2.1,��쓌,3.6,85.7,0,0,0,0
2024-01-15T05:31:00+09:00,0.8,�쓌,2.1,��쓌,3.9,86,0,0,0,0
2024-01-15T05:32:00+09:00,0.7,�쓌,2.1,��쓌,4,85.5,0,0,0,0
2024-01-15T05:33:00+09:00,0.7,�쓌,2.1,��쓌,3.8,85.3,0,0,0,0
2024-01-15T05:34:00+09:00,0.7,���쓌,2.1,��쓌,3.7,85.1,0,0,0,0
2024-01-15T05:35:00+09:00,0.8,���쓌,2.1,��쓌,4,85.3,0,0,0,0
2024-01-15T05:36:00+09:00,0.7,��,2.1,��쓌,4.2,84.3,0,0,0,0
2024-01-15T05:37:00+09:00,0.7,��,2,��,4.1,83.9,0,0,0,0
2024-01-15T05:38:00+09:00,0.8,��,2,���쓌,3.9,83.8,0,0,0,0
2024-01-15T05:39:00+09:00,1,��,2.8,���쓌,4.1,84,0,0,0,0
2024-01-15T05:40:00+09:00,1.1,��,2.8,���쓌,4,83.7,0,0,0,0
2024-01-15T05:41:00+09:00,1.2,��,2.8,���쓌,3.8,84.3,0,0,0,0
2024-01-15T05:42:00+09:00,1.5,��,3.1,��,4.1,85.1,0,0,0,0
2024-01-15T05:43:00+09:00,1.6,��,3.9,��,4.2,85.1,0,0,0,0
2024-01-15T05:44:00+09:00,1.8,��,3.9,��,4.7,85.9,0,0,0,0
2024-01-15T05:45:00+09:00,1.9,��,3.9,��,4.8,84.5,0,0,0,0
2024-01-15T05:46:00+09:00,2,��,3.9,��,4.8,83.2,0,0,0,0
2024-01-15T05:47:00+09:00,2.1,��,3.9,��,4.4,82.4,0,0,0,0
2024-01-15T05:48:00+09:00,2.1,���쓌,3.9,��,4.4,83.1,0,0,0,0
2024-01-15T05:49:00+09:00,2,��,3.9,��,4.5,84,0,0,0,0
2024-01-15T05:50:00+09:00,2.1,��,3.9,��,4.6,84.4,0,0,0,0
2024-01-15T05:51:00+09:00,2.1,��,3.9,��,4.8,84.8,0,0,0,0
2024-01-15T05:52:00+09:00,2.1,��,3.9,��,4.9,84.6,0,0,0,0
2024-01-15T05:53:00+09:00,2.1,��,3.7,��,4.9,84.4,0,0,0,0
2024-01-15T05:54:00+09:00,2.1,���쓌,3.7,��,4.9,84.4,0,0,0,0
2024-01-15T05:55:00+09:00,2.3,���쓌,3.8,���쓌,5,84.7,0,0,0,0
2024-01-15T05:56:00+09:00,2.3,���쓌,3.8,���쓌,5,84.8,0,0,0,0
2024-01-15T05:57:00+09:00,2.3,���쓌,3.8,���쓌,5.2,84.9,0,0,0,0
2024-01-15T05:58:00+09:00,2.3,���쓌,3.8,���쓌,5.3,84.7,0,0,0,0
2024-01-15T05:59:00+09:00,2.4,���쓌,3.9,��,5.3,84.7,0,0,0,0
2024-01-15T06:00:00+09:00,2.5,���쓌,5.9,�k��,5.4,84.6,0,0,0,0
2024-01-15T06:01:00+09:00,2.5,��,5.9,�k��,5.7,84.8,0,0,0,0
2024-01-15T06:02:00+09:00,2.5,��,5.9,�k��,5.8,84.1,0,0,0,0
2024-01-15T06:03:00+09:00,2.6,��,5.9,�k��,5.7,83.5,0,0,0,0
2024-01-15T06:04:00+09:00,2.7,��,6.1,���k��,5.8,83.5,0,0,0,0
2024-01-15T06:05:00+09:00,2.9,���k��,6.4,���k��,5.9,83.1,0,0,0,0
2024-01-15T06:06:00+09:00,3,���k��,6.4,���k��,5.9,82.7,0,0,0,0
2024-01-15T06:07:00+09:00,3.1,���k��,6.4,���k��,5.8,82.7,0,0,0,0
2024-01-15T06:08:00+09:00,3,���k��,6.4,���k��,5.8,83,0,0,0,0
2024-01-15T06:09:00+09:00,3.4,���k��,9.9,�k��,5.8,83.1,0,0,0,0
2024-01-15T06:10:00+09:00,3.6,���k��,9.9,�k��,6,82.5,0,0,0,0
2024-01-15T06:11:00+09:00,3.6,���k��,9.9,�k��,6,82.5,0,0,0,0
2024-01-15T06:12:00+09:00,3.6,���k��,9.9,�k��,6,82.2,0,0,0,0
2024-01-15T06:13:00+09:00,3.7,���k��,9.9,�k��,6,82.2,0,0,0,0
2024-01-15T06:14:00+09:00,3.5,���k��,9.9,�k��,6,82.2,0,0,0,0
2024-01-15T06:15:00+09:00,3.5,���k��,9.9,�k��,5.9,82.6,0,0,0,0
2024-01-15T06:16:00+09:00,3.3,�k��,9.9,�k��,5.9,82.9,0,0,0,0
2024-01-15T06:17:00+09:00,3.2,�k��,9.9,�k��,5.9,82.8,0,0,0,0
2024-01-15T06:18:00+09:00,3.3,�k��,9.9,�k��,6,82.5,0,0,0,0
2024-01-15T06:19:00+09:00,3,�k��,6.3,���쓌,6,82.2,0,0,0,0
2024-01-15T06:20:00+09:00,2.6,�k��,6.3,���쓌,5.9,82.8,0,0,0,0
2024-01-15T06:21:00+09:00,2.5,�k��,6.2,�k��,5.9,82.9,0,0,0,0
2024-01-15T06:22:00+09:00,2.4,�k��,6.2,�k��,6,82.7,0,0,0,0
2024-01-15T06:23:00+09:00,2.2,�k��,6.2,�k��,5.9,82.8,0,0,0,0
2024-01-15T06:24:00+09:00,2.1,���k��,6.2,�k��,5.9,82.9,0,0,0,0
2024-01-15T06:25:00+09:00,1.9,���k��,3.7,��,6,82.4,0,0,0,0
2024-01-15T06:26:00+09:00,1.8,���k��,3.7,��,6,81.9,0,0,0,0
2024-01-15T06:27:00+09:00,1.8,���k��,3.7,��,6,81.9,0,0,0,0
2024-01-15T06:28:00+09:00,1.9,���k��,4.2,�k��,6,81.9,0,0,0,0
2024-01-15T06:29:00+09:00,1.8,���k��,4.2,�k��,6,81.9,0,0,0,0
2024-01-15T06:30:00+09:00,2,���k��,4.2,�k��,6,81.8,0,0,0,0
2024-01-15T06:31:00+09:00,2,���k��,4.2,�k��,6,81.9,0,0,0,0
2024-01-15T06:32:00+09:00,1.9,���k��,4.2,�k��,6,81.9,0,0,0,0
2024-01-15T06:33:00+09:00,1.9,���k��,4.2,�k��,6,82,0,0,0,0
2024-01-15T06:34:00+09:00,1.9,���k��,4.2,�k��,6,82,0,0,0,0
2024-01-15T06:35:00+09:00,2,���k��,4.3,��,6,81.9,0,0,0,0
2024-01-15T06:36:00+09:00,2.4,���k��,7,�k��,6,81.7,0,0,0,0
2024-01-15T06:37:00+09:00,2.6,�k��,7.2,�k��,6,81.5,0,0,0,0
2024-01-15T06:38:00+09:00,2.6,�k��,7.2,�k��,6,81.6,0,0,0,0